COSMOS 1833 (17589 NORAD) Tracking and Keplerian Element Data

This shows tracking and keplerian element data for the satellite.

Feedback or suggestion? Click here.




ElementValue
Catalog17589
NameCOSMOS 1833
Epoch Orbit99907
Epoch Day354.15084378
Epoch Year2025
RAAN133.1975
Inclination70.9149
Eccentricity0.0022844
Argument of Perigee321.3675
Mean Anonmoly38.581
Mean Motion14.13025055
Decay Rate2.02E-06
L11 17589U 87027A 25354.15084378 .00000202 00000+0 13375-3 0 9994
L22 17589 70.9149 133.1975 0022844 321.3675 38.5810 14.13025055999073



Live tracking and technical data element details for COSMOS 1833 (NORAD 17589). COSMOS 1833 can be tracked NOW for your location showing map with azimuth and elevation plus other details from your city location.







IsCatalogInMostPopularTable: catalog: 17589, numindb: 618
Update: records affected: 1



GetName: 17589 COSMOS 1833

Hit Count: updated at: Thu, 21 May 2026 10:14:10 GMT